TIME,DELAY(SENSOR),PRES,T(CTD),SAL,OXYGEN,RAWTEMP,T(OPTODE),TCPHASE,FLUOR,BETA(BETA700),BETA(BETA412),BETA(BETA440),CDOM,C(CSC),ED(ED411.90),ED(ED443.80),ED(ED489.40),ED(ED554.70),LU(LU412.20),LU(LU443.80),LU(LU489.40),LU(LU555.00),COMP,TILTX,TILTX(TILTY),CHECK
1352733993,5804,497.4899902343750000,17.4841003417968750,36.4674987792968750,233.6685028076172000,186.5948028564453000,17.4895000457763670,31.7980995178222660,50,98,64,64,51,1643,2147487524,2147768950,2147557366,2147795392,2147316763,2147476790,2147709750,2148247908,749,7,13,37967
1352734120,5803,486.4299926757812500,17.5669994354248050,36.4835014343261700,235.1080932617187500,184.0727996826172000,17.5662403106689450,31.6941204071044920,49,99,64,65,52,1645,2147487936,2147770514,2147552393,2147794048,2147315227,2147485650,2147708123,2148250468,893,7,13,62685
1352734249,5805,475.4100036621094000,17.6359004974365230,36.4956016540527340,235.9407958984375000,181.8851013183593800,17.6328201293945300,31.6243705749511720,49,99,63,66,51,1642,2147485750,2147769600,2147555849,2147793124,2147316205,2147479798,2147708781,2148242953,1121,7,13,24724
1352734376,5802,464.6300048828125000,17.6613006591796880,36.4991989135742200,235.1629028320312500,181.0009002685547000,17.6597309112548830,31.6497306823730470,50,99,64,63,50,1643,2147485942,2147764315,2147556845,2147795328,2147313645,2147482569,2147710409,2148243904,1412,7,13,53201
1352734503,5805,453.4899902343750000,17.7031993865966800,36.5051002502441400,234.4785003662109400,179.5722961425781200,17.7032108306884770,31.6634502410888670,50,101,64,63,50,1644,2147492772,2147762313,2147556022,2147796169,2147312237,2147480630,2147708571,2148243894,1870,7,13,19741
1352734632,5802,442.2000122070312500,17.7842998504638670,36.5199012756347660,235.4568939208984400,177.0346984863281200,17.7804508209228500,31.5818500518798830,49,100,63,64,50,1643,2147491785,2147761828,2147554642,2147791012,2147310080,2147481563,2147711652,2148242358,2506,7,13,8582
1352734759,5805,430.8200073242187500,17.8423004150390620,36.5287017822265600,236.2888946533203000,175.1315002441406200,17.8383903503417970,31.5161895751953120,49,100,63,65,52,1643,2147488475,2147767168,2147553883,2147794422,2147307675,2147481609,2147710518,2148244251,3409,7,13,1859
1352734876,5804,420.2900085449219000,17.8749008178710940,36.5309982299804700,234.6938018798828000,174.0699005126953000,17.8707103729248050,31.5789108276367200,49,100,65,64,51,1645,2147487241,2147767021,2147555446,2147793828,2147316489,2147484992,2147709915,2148244004,233,7,12,46636
1352735003,5805,408.7600097656250000,17.9183006286621100,36.5373992919921900,233.6060028076172000,172.4772033691406200,17.9192008972167970,31.6096591949462900,49,101,63,63,50,1647,2147488950,2147768813,2147553517,2147795648,2147315766,2147484388,2147708306,2148241901,639,7,13,63424
1352735118,5803,398.3999938964844000,17.9904003143310550,36.5497016906738300,233.9010925292968800,170.2113037109375000,17.9881992340087900,31.5649299621582030,50,100,64,64,50,1648,2147488548,2147767149,2147559122,2147793654,2147301906,2147482733,2147704795,2148243949,835,7,12,364
1352735247,5802,386.9200134277344000,18.0261993408203120,36.5545997619628900,233.8209991455078000,169.0971069335937500,18.0221195220947270,31.5540103912353500,49,102,63,63,51,1648,2147491172,2147765796,2147553417,2147792420,2147313773,2147485330,2147707885,2148241142,1461,7,12,39237
1352735362,5802,376.7699890136719000,18.0573005676269530,36.5589981079101560,233.9122009277343800,168.0131988525390600,18.0551300048828120,31.5348701477050780,50,103,64,65,50,1645,2147491702,2147765778,2147556141,2147793581,2147307529,2147478729,2147707977,2148241526,1778,7,13,668
1352735479,5801,366.5299987792969000,18.1126995086669920,36.5657997131347660,234.1255950927734400,166.1499938964843800,18.1118793487548830,31.4993896484375000,50,99,64,64,51,1645,2147488786,2147764690,2147558701,2147790610,2147315172,2147478948,2147710902,2148245677,2553,7,13,19821
1352735606,5802,355.5599975585937500,18.1560993194580080,36.5718994140625000,234.3240051269531200,164.7642059326172000,18.1540908813476560,31.4712104797363280,50,101,64,65,51,1647,2147494272,2147767305,2147558820,2147793152,2147311597,2147481938,2147707282,2148244370,2246,7,13,26176
1352735733,5806,344.8200073242187500,18.2192993164062500,36.5775985717773440,233.6116027832031200,162.5670013427734400,18.2210102081298830,31.4761791229248050,49,100,64,64,50,1647,2147489892,2147766564,2147558811,2147793014,2147312393,2147480310,2147706112,2148240740,713,7,12,36892
1352735874,5804,333.5899963378906000,18.3264007568359380,36.5887985229492200,231.6260986328125000,159.1434936523437500,18.3253192901611330,31.5267391204834000,50,100,64,64,50,1646,2147490660,2147765696,2147561243,2147789531,2147312374,2147482761,2147707702,2148241929,1041,7,13,40585
1352736013,5804,323.0599975585937500,18.3670005798339840,36.5898017883300800,229.4971008300781200,157.7371063232422000,18.3681697845459000,31.6120491027832030,49,101,63,64,52,1647,2147493339,2147769078,2147559003,2147790189,2147305069,2147484644,2147708800,2148243108,1374,7,13,45489
1352736161,5802,310.8900146484375000,18.4386005401611330,36.5895004272460940,225.7315979003906200,155.0993957519531200,18.4485492706298830,31.7640895843505860,49,103,65,63,51,1648,2147491501,2147766720,2147565010,2147793929,2147310290,2147486464,2147710921,2148238637,1414,7,12,37449
1352736276,5804,299.9899902343750000,18.5757007598876950,36.6072998046875000,224.6596984863281200,150.7877044677734400,18.5799694061279300,31.7599391937255860,49,102,64,63,51,1651,2147488740,2147767305,2147568064,2147789312,2147311003,2147485467,2147714322,2148238226,1731,7,12,53309
1352736391,5805,289.0000000000000000,18.6949996948242200,36.6176986694335940,222.9076995849609400,147.2077026367187500,18.6891307830810550,31.8005599975585940,49,101,64,64,51,1649,2147487350,2147766656,2147566144,2147792512,2147315099,2147486902,2147712265,2148241069,1638,7,12,65436
1352736508,5804,277.7999877929687500,18.8463993072509770,36.6206016540527340,215.4575042724609400,141.7158050537109400,18.8566207885742200,32.1136207580566400,49,100,65,64,51,1650,2147490669,2147768009,2147574308,2147787876,2147304950,2147485750,2147715547,2148242733,789,8,13,49866
1352736623,5804,266.6799926757812500,19.0088996887207030,36.6309013366699200,214.2158050537109400,136.8300933837890600,19.0056800842285160,32.1133384704589840,49,100,64,63,51,1649,2147493970,2147772854,2147584155,2147788571,2147310692,2147491456,2147721974,2148241499,382,7,12,50315
1352736738,5804,255.8800048828125000,19.1214008331298830,36.6409988403320300,214.8117065429687500,133.0034942626953000,19.1224708557128900,32.0300903320312500,49,100,64,63,51,1653,2147489435,2147771913,2147593947,2147789805,2147315465,2147492123,2147725385,2148239140,3140,7,12,31767
1352736855,5803,244.8500061035156200,19.2863006591796880,36.6615982055664060,214.4275970458984400,127.7158966064453100,19.2839107513427730,31.9792804718017580,49,100,63,64,50,1654,2147495981,2147777188,2147605211,2147790921,2147312256,2147496886,2147728438,2148238838,3108,7,12,1836
1352736970,5803,233.9799957275390600,19.3913993835449220,36.6663017272949200,214.8049011230468800,124.0509033203125000,19.3958492279052730,31.9098701477050780,50,99,63,64,51,1654,2147493897,2147771620,2147590363,2147790134,2147311826,2147495652,2147726290,2148237202,3331,8,12,61519
1352737085,5805,223.4600067138672000,19.4950008392334000,36.6502990722656250,220.7821044921875000,120.7061004638671900,19.4980392456054700,31.5539608001709000,49,99,64,64,50,1655,2147496804,2147776374,2147607936,2147790729,2147310948,2147498660,2147735698,2148241956,415,8,12,63659
1352737214,5801,212.5700073242187500,19.5018005371093750,36.6109008789062500,237.3132019042968800,120.6691970825195300,19.4991703033447270,30.7432899475097660,50,100,62,64,50,1656,2147497508,2147782765,2147612425,2147786898,2147312073,2147499584,2147734985,2148235949,545,7,12,30133
1352737353,5803,200.8200073242187500,19.6931991577148440,36.6449012756347660,233.3289947509765600,114.1809997558593800,19.6974906921386720,30.8468799591064450,50,103,65,64,51,1656,2147500077,2147782317,2147619364,2147789568,2147311350,2147501156,2147737773,2148238244,209,7,12,20476
1352737408,5804,196.2100067138672000,19.7373008728027340,36.6506004333496100,231.6398010253906200,112.9430999755859400,19.7353401184082030,30.9116306304931640,50,99,65,63,51,1657,2147505243,2147797869,2147652882,2147786651,2147316489,2147509056,2147760411,2148241005,393,8,12,51020
1352737482,5802,190.2799987792968800,19.8563995361328120,36.6651992797851560,229.0923004150390600,109.0832977294921900,19.8533992767334000,30.9845409393310550,49,102,63,65,52,1657,2147508452,2147857188,2147859209,2147788562,2147317257,2147545042,2147872777,2148248457,591,7,13,29702
1352737537,5804,186.2400054931640600,19.9092998504638670,36.6701011657714840,228.8385009765625000,107.4097976684570300,19.9046001434326170,30.9751091003417970,50,99,64,64,50,1658,2147510628,2147862765,2147857197,2147789385,2147314614,2147543067,2147864585,2148245924,685,7,12,203
1352737592,5802,182.1199951171875000,19.9395999908447270,36.6719017028808600,228.8043060302734400,106.1466979980468800,19.9432392120361330,30.9599208831787100,49,100,66,64,51,1657,2147506331,2147818614,2147712978,2147786020,2147318674,2147524525,2147792091,2148241133,665,8,12,19691
1352737647,5802,178.1000061035156200,20.0526008605957030,36.6875000000000000,225.7050018310547000,102.7684020996093800,20.0466403961181640,31.0681591033935550,50,102,64,63,51,1658,2147525293,2147914541,2148008219,2147790034,2147320475,2147578733,2147954249,2148250633,1096,7,12,8271
1352737714,5803,173.4499969482422000,20.0837001800537100,36.6936988830566400,221.3509979248047000,101.6782989501953100,20.0800094604492200,31.2719593048095700,49,100,64,64,51,1657,2147529691,2147935716,2148064594,2147789467,2147323986,2147592457,2147985142,2148254829,1030,7,12,59455
1352737792,5801,168.4100036621093800,20.1460990905761720,36.7044982910156250,216.3899993896484400,99.8173675537109400,20.1369895935058600,31.5025901794433600,50,103,64,64,51,1656,2147535524,2147958125,2148112777,2147786523,2147328100,2147606317,2148013632,2148253357,1679,7,12,33599
1352737871,5804,164.4400024414062500,20.2917003631591800,36.7204017639160160,213.0012969970703000,95.3176727294921900,20.2748107910156250,31.6208992004394530,50,101,63,65,51,1658,2147547529,2147981229,2148164498,2147783451,2147331017,2147619721,2148037147,2148255634,1457,7,13,13796
1352737950,5804,160.8899993896484400,20.3381004333496100,36.6874008178710940,226.4136962890625000,93.6704406738281200,20.3252792358398440,30.9135704040527340,50,103,63,63,50,1657,2147549814,2147992822,2148176374,2147786816,2147337270,2147626925,2148043602,2148254436,911,7,13,39136
1352738053,5802,156.8399963378906200,20.4976005554199220,36.7192993164062500,226.3415985107422000,88.3358688354492200,20.4887790679931640,30.8470497131347660,49,101,64,66,52,1659,2147562230,2148015405,2148229558,2147787136,2147337554,2147638080,2148067894,2148254902,3487,6,12,44211
1352738158,5800,152.8300018310547000,20.6555995941162100,36.7449989318847660,221.1224060058593800,83.0600128173828100,20.6505908966064450,31.0384807586669920,50,101,65,63,51,1661,2147542262,2147903387,2147879122,2147789394,2147333284,2147571099,2147877220,2148242569,3420,7,12,36491
1352738261,5804,148.8300018310547000,20.6898994445800780,36.7414016723632800,220.3296966552734400,81.9000015258789000,20.6861801147460940,31.0633506774902340,50,101,63,66,51,1660,2147585974,2148068141,2148325266,2147788196,2147354066,2147668653,2148109211,2148259620,2238,7,13,32981
1352738364,5801,145.0299987792968800,20.7970008850097660,36.7332992553710940,224.0910949707031200,78.4678573608398400,20.7915191650390620,30.8296909332275400,50,102,64,65,51,1658,2147555282,2147913700,2147891620,2147782272,2147336448,2147581257,2147885412,2148244909,2111,6,13,2349
1352738476,5803,140.6499938964843800,20.7548007965087900,36.6753997802734400,232.6936950683593800,79.5969924926757800,20.7568607330322270,30.4262199401855470,53,108,65,65,51,1657,2147569298,2147942464,2147937645,2147783890,2147342893,2147595318,2147907062,2148244818,1657,7,12,3864
1352738567,5805,136.5800018310547000,20.8066997528076170,36.6734008789062500,240.0706024169922000,78.1370162963867200,20.8016700744628900,30.0635395050048830,53,107,66,65,50,1655,2147706797,2148378514,2149036553,2147789330,2147398235,2147833654,2148478875,2148282678,1580,7,13,39577
1352738658,5803,132.6699981689453000,20.9643993377685550,36.6783981323242200,241.8999938964843800,73.2161865234375000,20.9527797698974600,29.9168205261230470,55,108,64,65,51,1654,2147748589,2148440192,2149135241,2147795785,2147415853,2147861970,2148513545,2148284352,2149,7,12,36618
1352738775,5800,128.9900054931640600,21.1553001403808600,36.6823997497558600,243.5503997802734400,66.8728713989257800,21.1477108001709000,29.7616004943847660,55,108,63,65,50,1655,2147797028,2148522560,2149266742,2147793060,2147436141,2147898285,2148573714,2148290093,1802,6,13,64740
1352738926,5805,125.3000030517578100,21.5125999450683600,36.6795005798339840,242.6555023193359400,55.9796905517578100,21.4828491210937500,29.6630897521972660,57,109,65,65,50,1655,2147865216,2148650358,2149531556,2147796726,2147462902,2147960603,2148692498,2148298450,1162,6,12,42848
1352739136,5803,120.9400024414062500,21.7598991394042970,36.6683998107910160,242.5005950927734400,47.3873405456543000,21.7475605010986330,29.5610694885253900,55,109,65,64,50,1651,2147991862,2148859602,2149922761,2147801901,2147511698,2148070326,2148878116,2148311753,1018,6,12,1289
1352739358,5805,117.0699996948242200,22.1487998962402340,36.6512985229492200,245.7604064941406200,33.9612197875976560,22.1618900299072270,29.2469902038574220,58,114,65,65,50,1649,2148123712,2149091766,2150335862,2147804150,2147570788,2148180964,2149061129,2148325101,462,7,12,1696
1352739509,5804,113.1900024414062500,22.7649002075195300,36.5750999450683600,244.3849945068359400,16.7198905944824220,22.6952705383300780,29.0912895202636720,59,113,64,66,50,1646,2148325028,2149418541,2150951698,2147813430,2147647661,2148337691,2149343058,2148349065,2807,8,12,48355
1352740018,5803,109.6399993896484400,23.3547992706298830,36.4149017333984400,243.4801940917968800,-4.3494248390197750,23.3492507934570300,28.8684196472167970,60,120,65,65,50,1636,2148398528,2149482422,2151026185,2147816201,2147688265,2148383542,2149381174,2148348708,2438,6,13,860
1352740336,5804,105.1299972534179700,23.4902992248535160,36.3652000427246100,245.1002044677734400,-8.4393110275268550,23.4764900207519530,28.7466106414794920,62,130,67,69,50,1639,2148655104,2149895232,2151755465,2147829924,2147834176,2148629714,2149794678,2148379684,1691,7,12,31529
1352740475,5803,101.2799987792968800,23.5051994323730470,36.3684005737304700,245.9707031250000000,-9.2248144149780270,23.5009403228759770,28.6991291046142580,63,132,65,67,50,1636,2148811136,2150126400,2152096329,2147842934,2147944457,2148775762,2149969874,2148392649,791,7,12,57530
1352740577,5804,98.1399993896484400,23.5126991271972660,36.3667984008789060,246.1033020019531200,-9.4918279647827150,23.5092506408691400,28.6898307800292970,62,129,65,67,50,1635,2148668278,2149760073,2151181878,2147831561,2147908873,2148610834,2149554916,2148369563,351,8,12,49706
1352740632,5805,95.6500015258789000,23.5182991027832030,36.3675003051757800,246.3695068359375000,-9.6821308135986330,23.5151805877685550,28.6759109497070300,62,129,66,67,49,1635,2148667456,2149621110,2150679780,2147827035,2147936457,2148568100,2149380205,2148357348,205,8,12,49698
1352740687,5805,92.9400024414062500,23.5209007263183600,36.3671989440918000,246.5419006347656200,-9.7860841751098630,23.5184097290039060,28.6672706604003900,63,130,67,67,50,1634,2149798966,2151785060,2155006811,2147920100,2148534729,2149747163,2151547181,2148528521,225,8,12,57280
1352740742,5802,90.1299972534179700,23.5212993621826170,36.3666992187500000,246.7740936279297000,-9.8009347915649410,23.5188808441162100,28.6569404602050780,62,126,66,67,49,1633,2150282715,2152565220,2156350208,2147969005,2148816073,2150189696,2152271158,2148592868,264,8,12,46194
1352740797,5804,87.2200012207031200,23.5203990936279300,36.3670997619628900,246.9275970458984400,-9.7996559143066400,23.5188407897949220,28.6504592895507800,61,129,64,65,50,1632,2150749019,2153289974,2157538742,2148021805,2149097883,2150633700,2152970752,2148658413,207,8,12,44588
1352740852,5803,84.2699966430664000,23.5209007263183600,36.3671989440918000,246.9228973388672000,-9.8218822479248050,23.5195293426513670,28.6504096984863280,62,128,65,67,50,1633,2151446198,2154371547,2159313645,2148095890,2149491035,2151251620,2153899145,2148740251,174,8,12,47580
1352740909,5803,81.2200012207031200,23.5203990936279300,36.3664016723632800,246.8327026367187500,-9.7973937988281250,23.5187606811523440,28.6545391082763670,63,127,66,67,50,1631,2150870601,2153212086,2156869522,2148041554,2149221824,2150662747,2152785984,2148654848,150,8,12,33930
1352740964,5804,78.2600021362304700,23.5223007202148440,36.3671989440918000,246.8482971191406200,-9.8666305541992190,23.5209197998046880,28.6529693603515620,64,127,65,67,50,1632,2152907273,2156488411,2162510866,2148283236,2150339428,2152477787,2155658706,2148922523,136,8,12,49175
1352741019,5804,75.3700027465820300,23.5258998870849600,36.3683013916015600,246.7055969238281200,-10.0078601837158200,23.5253200531005860,28.6573600769042970,63,128,66,66,49,1632,2153490752,2157227410,2163455936,2148363227,2150652269,2152871899,2156140845,2148989412,111,8,12,45259
1352741074,5807,72.4599990844726600,23.5324001312255860,36.3680992126464840,246.6851959228515600,-10.1694402694702150,23.5303497314453120,28.6563205718994140,63,127,67,67,50,1632,2154218861,2158181211,2164731437,2148460580,2151077705,2153416009,2156833901,2149075812,44,8,12,7299
1352741129,5805,69.4400024414062500,23.5328998565673830,36.3685989379882800,246.6983947753906200,-10.2086801528930660,23.5315704345703120,28.6553592681884770,64,126,66,67,49,1633,2155396342,2159789997,2167039360,2148655552,2151732470,2154296484,2158003163,2149224576,90,8,12,11954
1352741184,5808,66.4199981689453100,23.5319004058837900,36.3685989379882800,246.8336944580078000,-10.2255001068115230,23.5320892333984380,28.6492595672607420,63,129,66,68,50,1633,2156833837,2161771858,2169928137,2148901750,2152513078,2155348169,2159407862,2149401188,61,8,12,25101
1352741241,5801,63.2400016784668000,23.5338001251220700,36.3658981323242200,247.1369018554687500,-10.2568702697753900,23.5330696105957030,28.6357097625732420,63,131,66,68,48,1631,2158484489,2163873197,2172698724,2149202678,2153556672,2156729170,2161247881,2149636964,3526,8,12,23509
1352741296,5800,60.1500015258789060,23.5338001251220700,36.3658981323242200,247.4593048095703000,-10.2696599960327150,23.5334701538085940,28.6216907501220700,61,132,66,67,49,1629,2160536329,2166668306,2176702592,2149615442,2154777865,2158324562,2163268900,2149918784,206,8,12,17965
1352741351,5806,57.0400009155273440,23.5321998596191400,36.3667984008789060,247.7660980224609400,-10.2695598602294920,23.5334606170654300,28.6084899902343750,62,126,66,67,50,1628,2162723867,2169417499,2180333750,2150143862,2156132123,2160056685,2165430043,2150239716,479,8,12,22714
1352741406,5807,54.0800018310546900,23.5326004028320300,36.3657989501953100,247.7839050292968800,-10.2503795623779300,23.5328693389892580,28.6079692840576170,61,126,66,66,50,1628,2165233618,2172511917,2184402285,2150761152,2157682029,2161989302,2167868132,2150594825,552,8,12,38289
1352741548,5804,47.4599990844726560,23.5340995788574220,36.3656997680664060,247.8648986816406200,-10.3537502288818360,23.5360908508300780,28.6031303405761720,62,126,66,69,50,1628,2172615963,2181541833,2195914980,2152952941,2162195593,2167463716,2174345289,2151748397,306,8,12,30719
1352741583,5801,45.4599990844726560,23.5368995666503900,36.3647994995117200,247.9788970947265600,-10.4385204315185550,23.5387191772460940,28.5972194671630860,61,125,65,66,50,1627,2175099346,2184371300,2199231414,2153755858,2163746651,2169238720,2176322221,2152144667,171,8,12,31495
1352741616,5808,43.6100006103515600,23.5394001007080080,36.3641014099121100,248.0480041503906200,-10.5053997039794920,23.5408096313476560,28.5934791564941400,61,126,68,67,50,1629,2177820754,2187548114,2203152274,2154665929,2165607835,2171482761,2178977874,2152641005,63,8,12,41849
1352741649,5801,41.7700004577636700,23.5400009155273440,36.3637008666992200,248.0865020751953000,-10.5733604431152340,23.5429191589355470,28.5908794403076170,60,129,66,66,51,1628,2181371739,2191733257,2208419017,2156083318,2167806619,2174019254,2181857728,2153234688,3586,8,12,63787
1352741694,5804,39.2500000000000000,23.5415000915527340,36.3633003234863300,248.3101959228515600,-10.6113195419311520,23.5441093444824220,28.5807209014892580,60,127,66,67,50,1622,2184814720,2195404992,2212412690,2157508608,2169582646,2175827821,2183557741,2153753408,3512,7,12,39970
1352741727,5803,37.3899993896484400,23.5443000793457030,36.3622016906738300,248.3103027343750000,-10.6949100494384770,23.5467090606689450,28.5798206329345700,59,126,67,67,50,1623,2190980882,2202862144,2222118957,2159950701,2173054217,2179946093,2188411282,2154755456,3464,8,12,61791
1352741760,5804,35.5699996948242200,23.5436000823974600,36.3624000549316400,248.3460998535156200,-10.7189102172851560,23.5474605560302730,28.5778999328613280,59,126,66,67,50,1622,2194328996,2206361152,2225960228,2161436297,2175856182,2183188873,2192081472,2155610870,3417,8,12,44380
1352741793,5803,33.8199996948242200,23.5454006195068360,36.3618011474609400,248.2655029296875000,-10.7728099822998050,23.5491294860839840,28.5807399749755860,59,125,65,67,50,1623,2200027072,2212948050,2234121938,2164180370,2178058331,2185481316,2194485302,2156276726,3289,7,12,26068
1352741838,5805,31.4300003051757800,23.5471000671386720,36.3614997863769500,248.4747924804687500,-10.8554201126098630,23.5517101287841800,28.5706291198730470,58,126,65,66,50,1620,2206426825,2219782473,2242032950,2167594953,2182518948,2190474934,2199963922,2157645549,3235,7,12,3315
1352741871,5803,29.6599998474121100,23.5501003265380860,36.3602981567382800,248.3533020019531200,-10.9757995605468750,23.5554504394531250,28.5744400024414060,59,125,65,66,50,1621,2212611099,2226453970,2249724443,2170742646,2185809426,2194024137,2203690002,2158787373,3182,6,12,62303
1352741906,5804,27.8299999237060550,23.5508003234863280,36.3600997924804700,248.4499053955078000,-11.0280199050903320,23.5570793151855470,28.5695590972900400,59,124,68,67,50,1621,2219573248,2233822756,2258199350,2175290825,2191401060,2200268763,2210623725,2160820269,3075,7,11,48608
1352741951,5802,25.4500007629394530,23.5527992248535160,36.3591995239257800,248.4461975097656200,-11.1117095947265620,23.5596904754638670,28.5687599182128900,58,128,67,67,50,1619,2229741348,2244387392,2270289188,2181938331,2197744502,2206869302,2217532150,2163178779,3083,9,12,45986
